Location: �perlecques
(50.8057°N, 2.1521°E)
Time: 18:31:12
(UTC+00:00)

Cosmos 1340 Rocket - Pass Details

Date: 09 April 2020
Orbit: 529 x 559 km, 81.2° (Epoch: 03 June)

Event Time Altitude Azimuth Distance (km) Brightness Sun altitude
Rises 19:04:59 0° 165° (SSE) 2,727 6.0 -5.0°
Reaches altitude 10° 19:07:19 10° 155° (SSE) 1,833 5.1 -5.3°
Maximum altitude 19:10:53 31° 93° (E) 994 3.6 -5.8°
Drops below altitude 10° 19:14:26 10° 31° (NNE) 1,833 5.4 -6.4°
Sets 19:16:46 0° 21° (NNE) 2,726 6.4 -6.7°
